{"data":{"norad_id":67351,"epoch":"2026-05-25T00:49:53.092992Z","epoch_age_seconds":65351,"freshness":"FRESH","line1":"1 67351U 26003T   26145.03464228  .00014638  00000+0  54027-3 0  9992","line2":"2 67351  42.9990 155.5783 0001613 253.4082 106.6592 15.27587165 20509","mean_motion":15.27587165,"eccentricity":0.0001613,"inclination_deg":42.999,"raan_deg":155.5783,"arg_perigee_deg":253.4082,"mean_anomaly_deg":106.6592,"bstar":0.00054027,"rev_number":2050,"period_min":94.266306564575,"perigee_km":481.92093567924,"apogee_km":484.1343473926,"semimajor_km":6861.1646415359,"source":"CELESTRAK","updated_at":"2026-05-25T13:38:21.525704Z"}}